Home > Weather > Bydgoszcz > Past weeks

Flag for Poland Weather for the Past 2 Weeks in Bydgoszcz, Poland

Now
45 °F

Overcast.


Feels Like: 44 °F
Forecast: 35 / 46 °F
Wind: 3 mph from South

Location: Torun

Current Time: Feb 6, 2016 at 5:18:19 PM

Latest Report: Feb 6, 2016 at 4:00 PM


Visibility: 6 mi

Pressure: 30.03 "Hg

Humidity: 85%

Dew point: 41 °F

Location of BydgoszczLocation

Historic Weather in Bydgoszcz — Graph

°F

Bydgoszcz Temperature Yesterday

Maximum temperature yesterday: 38 °F (at 1:00 PM)
Minimum temperature yesterday: 29 °F (at 7:00 AM)
Average temperature yesterday: 35 °F

High & Low Weather Summary for the Past Weeks

 TemperatureHumidityPressure
High51 °F (Feb 2, 11:00 AM)100% (Jan 24, 10:00 PM)30.56 "Hg (Jan 24, 10:00 PM)
Low13 °F (Jan 22, 9:00 PM)50% (Feb 3, 1:00 PM)29.53 "Hg (Jan 30, 10:00 PM)
Average38 °F84%30.03 "Hg
* Reported Jan 22 4:00 PM — Feb 6 4:00 PM, Bydgoszcz, Weather by CustomWeather, © 2016

Note: Actual official high and low records may vary slightly from our data, if they occured in-between our weather recording intervals... More about our weather records

Advertising

Bydgoszcz Weather History for the Previous 24 Hours

 ConditionsComfort  
Time TempWeatherWind HumidityBarometerVisibility
4:00 PM
Sat, Feb 6
45 °FOvercast.3 mph85%30.03 "Hg6 mi
3:00 PM46 °FOvercast.3 mph83%30.03 "Hg7 mi
2:00 PM46 °FFog.3 mph86%30.06 "Hg6 mi
1:00 PM45 °FFog.3 mph88%30.08 "Hg3 mi
12:00 PM42 °FFog.5 mph96%30.11 "Hg1 mi
11:00 AM40 °FFog.5 mph98%30.12 "Hg1 mi
10:00 AM39 °FFog.6 mph99%30.14 "Hg1 mi
9:00 AM38 °FFog.1 mph99%30.14 "Hg1 mi
8:00 AM36 °FFog.2 mph100%30.14 "Hg1 mi
7:00 AM36 °FFog.1 mph100%30.14 "Hg1 mi
6:00 AM35 °FFog.2 mph98%30.14 "Hg1 mi
5:00 AM35 °FFog.2 mph95%30.14 "Hg2 mi
4:00 AM35 °FLow clouds.2 mph93%30.15 "Hg5 mi
3:00 AM35 °FLight rain. Overcast.2 mph89%30.15 "Hg3 mi
9:00 PM
Fri, Feb 5
33 °FFog.2 mph88%30.19 "Hg4 mi
8:00 PM36 °FOvercast.2 mph84%30.19 "Hg7 mi
7:00 PM36 °FOvercast.2 mph82%30.18 "Hg11 mi
6:00 PM35 °FOvercast.2 mph79%30.19 "Hg8 mi
5:00 PM36 °FOvercast.2 mph76%30.19 "Hg18 mi
Weather by CustomWeather, © 2016

See weather overviewHow to use our weather pages